NV6B Weather Reports


Display with metric or nautical units.
time (UTC)temp
F
wind
direction
speed
MPH
gust
MPH
rain 1hr
in
rain 24hr
in
rain mn
in
humidity
%
barometer
mb
20260906185609 69 9 3.0 5.0 0.00 0.00 0.00 40 1014.8
20260906184609 68 349 0.0 2.0 0.00 0.00 0.00 39 1015.0
20260906183609 67 354 3.0 6.0 0.00 0.00 0.00 41 1015.1
20260906182608 66 14 2.0 5.0 0.00 0.00 0.00 42 1015.2
20260906181629 66 12 3.0 3.0 0.00 0.00 0.00 43 1015.2
20260906180608 66 12 3.0 3.0 0.00 0.00 0.00 46 1015.3
20260906175608 65 11 2.0 4.0 0.00 0.00 0.00 46 1015.3
20260906174608 65 13 3.0 4.0 0.00 0.00 0.00 51 1015.3
20260906173628 64 17 3.0 5.0 0.00 0.00 0.00 53 1015.4
20260906172608 63 29 3.0 6.0 0.00 0.00 0.00 54 1015.4
20260906171608 63 32 4.0 5.0 0.00 0.00 0.00 56 1015.5
20260906170608 62 23 3.0 5.0 0.00 0.00 0.00 58 1015.5
20260906165607 62 25 3.0 4.0 0.00 0.00 0.00 58 1015.4
20260906164608 62 18 3.0 3.0 0.00 0.00 0.00 58 1015.5
20260906163607 61 32 3.0 4.0 0.00 0.00 0.00 59 1015.6
20260906162608 61 137 0.0 3.0 0.00 0.00 0.00 60 1015.5
20260906134606 51 177 0.0 1.0 0.00 0.00 0.00 77 1014.9
20260906133606 51 177 0.0 2.0 0.00 0.00 0.00 77 1014.8
20260906132606 51 262 2.0 3.0 0.00 0.00 0.00 77 1014.7
20260906131606 52 262 2.0 3.0 0.00 0.00 0.00 76 1014.6
20260906101604 54 262 0.0 0.0 0.00 0.01 0.00 67 1013.7
20260906100604 54 262 0.0 1.0 0.00 0.01 0.00 67 1013.8
20260906095604 54 262 2.0 3.0 0.00 0.01 0.00 67 1013.8
20260906094604 55 262 1.0 2.0 0.00 0.01 0.00 65 1013.9
20260906093604 55 262 2.0 2.0 0.00 0.01 0.00 64 1013.9
20260906092604 56 262 1.0 3.0 0.00 0.01 0.00 62 1013.9
20260906062602 60 318 1.0 2.0 0.00 0.01 0.00 55 1014.4
20260906061602 60 318 0.0 0.0 0.00 0.01 0.00 54 1014.6
20260906060602 60 317 3.0 3.0 0.00 0.01 0.00 55 1014.3
20260906055602 60 320 3.0 3.0 0.00 0.01 0.01 59 1014.4
20260906054602 61 320 2.0 3.0 0.00 0.01 0.01 60 1015.0
20260906053602 61 320 2.0 2.0 0.00 0.01 0.01 59 1014.9
20260906052602 62 320 2.0 3.0 0.00 0.01 0.01 58 1015.6
20260906051601 62 320 0.0 0.0 0.00 0.01 0.01 56 1015.7
20260906050601 62 320 1.0 2.0 0.00 0.01 0.01 55 1015.7
20260906045602 62 320 0.0 0.0 0.00 0.01 0.01 53 1015.6
20260906044621 63 320 0.0 0.0 0.00 0.01 0.01 52 1015.5
20260906043601 63 320 1.0 2.0 0.00 0.01 0.01 51 1015.6
20260906042601 64 320 2.0 3.0 0.00 0.01 0.01 50 1015.3
20260906041601 64 320 3.0 3.0 0.00 0.01 0.01 48 1014.9
20260906040601 64 314 3.0 3.0 0.00 0.01 0.01 48 1015.1
20260906035601 64 311 2.0 3.0 0.00 0.01 0.01 48 1015.4
20260906034601 65 311 0.0 1.0 0.00 0.01 0.01 48 1015.4
20260906033601 65 314 2.0 3.0 0.00 0.01 0.01 49 1015.3
20260906032601 65 316 1.0 4.0 0.00 0.01 0.01 49 1015.2
20260906031601 65 316 3.0 3.0 0.00 0.01 0.01 50 1015.2
20260906002559 72 358 5.0 5.0 0.00 0.01 0.01 40 1015.5
20260906001559 72 353 3.0 3.0 0.00 0.01 0.01 39 1015.4
20260906000559 73 349 3.0 4.0 0.00 0.01 0.01 37 1015.5
20260905235559 73 349 3.0 7.0 0.00 0.01 0.01 37 1015.6
20260905234619 74 14 4.0 5.0 0.00 0.01 0.01 37 1015.8
20260905233558 74 316 1.0 7.0 0.00 0.01 0.01 37 1015.8
20260905232619 74 339 5.0 5.0 0.00 0.01 0.01 38 1015.8
20260905231559 75 339 4.0 4.0 0.00 0.01 0.01 37 1015.9
20260905230558 75 339 3.0 4.0 0.00 0.01 0.01 37 1015.9
20260905225558 75 324 4.0 7.0 0.00 0.01 0.01 36 1016.2
20260905224558 74 322 3.0 3.0 0.00 0.01 0.01 36 1016.4
20260905223558 75 344 2.0 4.0 0.00 0.01 0.01 35 1016.6
20260905222558 74 288 3.0 6.0 0.00 0.01 0.01 37 1016.8
20260905221558 75 280 0.0 2.0 0.00 0.01 0.01 37 1016.9
20260905220558 74 281 1.0 3.0 0.00 0.01 0.01 39 1016.9
20260905215558 73 280 1.0 4.0 0.00 0.01 0.01 38 1017.1
20260905214558 73 274 3.0 3.0 0.00 0.01 0.01 39 1017.4
20260905213557 74 195 0.0 4.0 0.00 0.02 0.01 40 1017.4
20260905212557 73 243 2.0 5.0 0.00 0.02 0.01 42 1017.4
20260905211558 73 201 0.0 3.0 0.00 0.02 0.01 41 1017.7
20260905210557 73 155 2.0 6.0 0.00 0.03 0.01 45 1017.8
20260905205557 72 301 0.0 5.0 0.00 0.04 0.01 41 1017.9
20260905204557 73 292 3.0 3.0 0.00 0.04 0.01 42 1018.0
20260905203557 71 35 3.0 4.0 0.00 0.04 0.01 44 1018.0
20260905202557 71 309 2.0 8.0 0.00 0.04 0.01 45 1018.1
20260905201557 69 324 3.0 4.0 0.00 0.04 0.01 45 1018.2
20260905200617 69 25 3.0 3.0 0.00 0.05 0.01 42 1018.3
20260905195557 69 71 1.0 3.0 0.00 0.05 0.01 46 1018.4
20260905194556 68 71 0.0 1.0 0.00 0.05 0.01 49 1018.6
20260905193556 69 71 3.0 6.0 0.00 0.05 0.01 51 1018.8
20260905192557 67 312 0.0 5.0 0.00 0.05 0.01 53 1018.9
20260905191556 67 314 3.0 5.0 0.00 0.05 0.01 52 1019.1
20260905190556 66 354 4.0 6.0 0.00 0.05 0.01 58 1019.2